GSAT-15 (41028 NORAD) Tracking and Keplerian Element Data

This shows tracking and keplerian element data for the satellite.

Feedback or suggestion? Click here.




ElementValue
Catalog41028
NameGSAT-15
Epoch Orbit3386
Epoch Day34.84503926
Epoch Year2025
RAAN268.2101
Inclination0.0807
Eccentricity0.0001411
Argument of Perigee24.4559
Mean Anonmoly239.2713
Mean Motion1.00272611
Decay Rate-2.53E-06
L11 41028U 15065A 25034.84503926 -.00000253 00000+0 00000+0 0 9992
L22 41028 0.0807 268.2101 0001411 24.4559 239.2713 1.00272611 33865



Live tracking and technical data element details for GSAT-15 (NORAD 41028). GSAT-15 can be tracked NOW for your location showing map with azimuth and elevation plus other details from your city location.







IsCatalogInMostPopularTable: catalog: 41028, numindb: 544
Update: records affected: 1



GetName: 41028 GSAT-15

Hit Count: updated at: Thu, 15 May 2025 20:12:33 GMT